Location: ActonStarParty
(42.4766°N, 71.4538°W)
Time: 06:21:06
(UTC-04:00)

Daily predictions for brighter satellites

Satellite Brightness Start Highest point End
(mag) Time Altitude Azimuth Time Altitude Azimuth Time Altitude Azimuth
Nadezhda 1 Rocket 4.2 20:35:38 10° SSE 20:41:49 57° E 20:48:04 10° NNE
Cosmos 2112 Rocket 4.0 20:38:29 10° SSW 20:43:42 85° ESE 20:48:55 10° NNE
Cosmos 192 4.3 20:42:31 10° SSW 20:47:24 77° ESE 20:52:19 10° NNE
Helios 1A 3.0 20:43:55 10° SSE 20:48:08 85° ENE 20:52:22 10° NNW
Cosmos 1624 Rocket 4.4 20:44:33 10° N 20:49:41 50° ENE 20:54:50 10° SE
Cosmos 405 Rocket 3.5 20:48:25 10° SSW 20:52:08 56° WNW 20:55:58 10° N
Cosmos 921 Rocket 4.1 20:52:13 10° N 20:56:16 32° ENE 21:00:13 10° SE
SL-27 R/B 3.1 20:53:40 10° SSW 20:57:18 64° WNW 21:00:56 10° NNE
Cosmos 1441 Rocket 3.1 20:54:36 10° S 20:58:20 87° E 21:02:05 10° N
Cosmos 2154 Rocket 4.2 20:54:20 10° N 21:00:37 59° E 21:06:51 10° SSE
H-2A R/B 3.7 20:58:01 10° ESE 21:01:27 19° ENE 21:04:55 10° NNE
Helios 1B rocket 2.5 20:58:12 10° NNE 21:02:21 84° WNW 21:06:29 10° SSW
Tiangong 2 1.1 20:59:53 10° W 21:03:05 87° N 21:06:16 10° E
Cosmos 1680 Rocket 4.4 21:00:33 10° SW 21:05:39 53° WNW 21:10:47 10° N
Aureole 1 Rocket 3.6 21:04:52 10° SW 21:07:52 41° WNW 21:10:44 10° N
Meteor 1-23 Rocket 4.2 21:02:22 10° S 21:07:55 78° E 21:13:34 10° NNE
Cosmos 967 Rocket 4.5 21:02:49 10° SSW 21:08:59 64° ESE 21:15:12 10° NE
Cosmos 2056 Rocket 3.5 21:04:15 10° NNW 21:09:25 68° ENE 21:14:19 11° SSE
Envisat 3.6 21:06:08 10° S 21:11:07 56° W 21:16:07 10° NNW
Cosmos 839 Rocket 4.5 21:05:05 10° NNW 21:11:36 66° NE 21:18:51 12° SE
SAR-Lupe-4 4.4 21:12:40 10° S 21:16:10 50° W 21:19:41 10° NNW
Cosmos 1892 Rocket 4.0 21:12:23 10° SSE 21:16:34 43° E 21:20:45 10° NNE
Lacrosse 5 rocket 4.2 21:14:05 10° NNW 21:16:39 14° N 21:19:12 10° NE
Cosmos 2082 Rocket 2.8 21:11:53 10° SSE 21:16:56 34° ESE 21:21:59 10° NE
Cosmos 2278 3.9 21:12:46 10° NNW 21:18:27 60° ENE 21:23:15 14° SE
Terra 3.9 21:17:14 10° E 21:19:43 14° ENE 21:22:10 10° NNE
Meteor 1-4 Rocket 4.3 21:19:42 10° NNE 21:22:17 19° ENE 21:23:57 14° ESE
Okean 1-7 Rocket 4.0 21:19:06 10° SSW 21:23:32 67° W 21:28:03 10° N
YAOGAN 6 2.8 21:20:11 10° S 21:23:39 67° W 21:27:09 10° NNW
Okean 2 3.4 21:22:10 10° S 21:26:15 88° W 21:30:22 10° N
Cosmos 1606 Rocket 3.5 21:22:23 10° N 21:26:44 77° E 21:30:35 13° SSE
SPOT 5 3.0 21:28:06 17° SE 21:31:11 47° ENE 21:35:25 10° N
Cosmos 1025 Rocket 3.6 21:27:24 10° SSW 21:31:36 59° W 21:35:51 10° N
Meteor 1-15 Rocket 4.4 21:26:35 10° NNW 21:32:10 75° W 21:37:42 10° S
Cosmos 1656 3.9 21:27:41 10° NNW 21:33:04 55° ENE 21:37:02 18° SE
Cosmos 1697 Rocket 3.4 21:28:40 10° NNW 21:33:59 41° ENE 21:37:54 17° ESE
MOS 1-B Rocket 4.1 21:29:13 13° SSE 21:34:31 78° ENE 21:41:12 10° NNW
NOSS 8 (H) 4.5 21:31:17 10° SSW 21:34:33 52° ESE 21:38:01 10° NE
Cosmos 1726 Rocket 3.5 21:31:19 10° N 21:35:40 80° E 21:39:06 16° SSE
Cosmos 2341 Rocket 4.0 21:30:12 10° N 21:36:36 80° E 21:42:28 13° S
SL-24 DEB 4.5 21:33:58 17° SSE 21:37:21 53° E 21:41:54 10° N
Cosmos 2369 3.7 21:33:18 10° NNW 21:39:03 86° ENE 21:43:25 18° SSE
SL-08 RB Rocket 4.0 21:38:11 20° SE 21:41:05 51° ENE 21:45:26 10° N
Cosmos 1452 Rocket 3.8 21:36:01 10° NNW 21:41:11 54° ENE 21:44:39 20° SE
COSMOS 2487 2.4 21:38:25 10° SSW 21:41:58 77° ESE 21:45:33 10° NNE
SL-16 R/B 4.4 21:40:23 10° NNE 21:43:05 13° NE 21:45:47 10° ENE
Cosmos 2218 Rocket 4.4 21:38:52 10° N 21:44:49 48° ENE 21:48:53 20° SE
MetOp-A 4.2 21:41:22 14° SSE 21:45:57 85° WSW 21:51:21 10° NNW
ERS-1 Rocket 3.3 21:41:26 11° S 21:46:12 63° WSW 21:51:13 10° NNW
USA 245 2.1 21:47:12 43° SE 21:47:42 56° ENE 21:49:57 10° N
Cosmos 1833 Rocket 2.7 21:44:20 10° S 21:49:49 60° ESE 21:55:22 10° NNE
SPOT 1/Viking Rocket 3.7 21:49:30 22° SE 21:52:49 60° ENE 21:57:53 10° N
ISS -1.2 21:50:19 10° WNW 21:53:00 23° NNW 21:55:43 10° NE
Cosmos 2058 Rocket 3.1 21:51:05 10° N 21:55:32 85° W 21:58:30 21° S
ATLAS CENTAUR R/B 3.9 21:59:18 10° NNE 21:59:38 10° NE 21:59:57 10° NE
Iridium 43 3.2 21:58:25 10° N 22:00:39 88° ENE 22:00:46 79° S
Cosmos 1271 Rocket 4.1 22:01:11 10° NNE 22:04:27 25° ENE 22:05:23 22° E
YAOGAN 11 4.3 22:02:04 21° S 22:04:51 65° WSW 22:09:11 10° NNW
Cosmos 2181 Rocket 4.2 21:59:22 10° SSW 22:05:44 77° W 22:12:02 10° N
USA 229 DEB 4.2 22:00:26 10° NNW 22:07:26 55° NE 22:12:17 21° ESE
USA 229 4.2 22:00:32 10° NNW 22:07:32 55° NE 22:12:23 21° ESE
Cosmos 468 4.5 22:05:25 17° S 22:09:21 64° ESE 22:14:36 10° NNE
Cosmos 1066 Rocket 4.1 22:06:49 16° S 22:11:16 84° E 22:16:58 10° NNE
Meteor 2-21 4.4 22:07:11 10° N 22:13:15 72° E 22:16:42 27° SSE
H-2A R/B 2.9 22:11:41 28° ESE 22:13:23 40° ENE 22:17:37 10° N
Cosmos 1544 4.4 22:11:43 10° NNE 22:14:44 24° ENE 22:15:06 24° E
Cosmos 1812 Rocket 4.1 22:10:33 10° N 22:14:53 46° ENE 22:16:19 33° SE
Meteor 2-21 Rocket 4.5 22:12:04 10° N 22:18:04 64° E 22:21:10 29° SSE
Cosmos 158 Rocket 4.2 22:19:00 29° SSE 22:21:26 53° ESE 22:26:40 10° NNE
Cosmos 864 Rocket 4.5 22:15:31 10° N 22:21:50 78° E 22:25:17 28° SSE
Cosmos 1980 Rocket 2.4 22:17:39 10° NNW 22:23:16 60° ENE 22:25:49 32° SE
Cosmos 1626 Rocket 3.4 22:21:47 33° S 22:23:41 82° E 22:28:02 10° N
ARGOS 3.8 22:20:51 19° S 22:24:33 51° W 22:29:51 10° NNW
Cosmos 2228 4.2 22:29:30 10° NNW 22:33:27 36° W 22:35:49 20° SW
CZ-4B R/B 4.2 22:29:39 10° NNE 22:34:23 36° E 22:35:16 34° ESE
Cosmos 2322 Rocket 3.5 22:29:56 10° N 22:34:54 29° NE 22:37:39 20° E
Cosmos 1953 3.5 22:31:26 10° NNE 22:34:59 28° ENE 22:35:24 27° E
Cosmos 1825 Rocket 4.2 22:37:25 35° E 22:37:39 35° E 22:41:37 10° NNE
Tiangong 2 1.4 22:36:40 10° W 22:39:21 59° W 22:39:21 59° W
H-2A R/B 2.4 22:38:01 29° SSW 22:40:24 55° W 22:45:24 10° NNW
Landsat 7 3.9 22:40:01 37° S 22:41:50 70° WSW 22:46:36 10° NNW
Cosmos 1766 3.1 22:38:00 10° N 22:41:56 86° W 22:42:36 60° S
Meteor 1-21 4.2 22:41:30 33° S 22:44:08 79° E 22:49:54 10° NNE
PSLV R/B 4.0 22:46:03 40° NNE 22:46:03 40° NNE 22:48:07 10° N
Cosmos 2366 rocket 4.2 22:40:52 10° NNW 22:46:57 64° W 22:50:17 28° SSW
SL-19 R/B 4.5 22:47:43 53° ESE 22:48:14 58° ENE 22:51:53 10° N
CZ-2C R/B 4.5 22:49:25 10° NE 22:52:49 16° E 22:52:59 16° E
Terra 1.9 22:55:30 46° S 22:56:52 71° W 23:01:37 10° NNW
Cosmos 1470 4.2 22:53:34 10° NNE 22:56:59 27° ENE 22:56:59 27° ENE
Lacrosse 5 rocket 3.0 22:52:57 10° NNW 22:57:10 33° NNE 22:59:32 21° E
Meteor 1-4 Rocket 4.3 22:54:29 10° NW 22:57:25 24° W 22:58:16 22° WSW
Cosmos-2242 4.4 22:56:37 10° NNE 23:00:13 26° ENE 23:00:26 25° E
Cosmos 2082 Rocket 3.6 22:55:45 10° WSW 23:00:57 36° WNW 23:06:10 10° N
Meteor 2-8 Rocket 4.4 23:01:41 42° SSE 23:03:51 71° E 23:10:00 10° NNE
Cosmos 1269 Rocket 4.4 23:01:07 23° SW 23:04:20 64° WNW 23:09:37 10° NNE
Cosmos 1805 3.2 23:06:44 10° NNW 23:10:38 74° W 23:10:42 74° WSW
deb Chang Zheng 4 3.9 23:09:06 10° N 23:13:21 61° WNW 23:14:27 45° SW
Cosmos 1331 Rocket 4.1 23:08:36 10° NNW 23:13:45 62° ENE 23:14:46 51° ESE
Cosmos 1110 Rocket 3.9 23:12:22 10° NNW 23:17:39 77° ENE 23:18:39 58° SE
Cosmos 1697 Rocket 4.0 23:12:58 10° NW 23:17:45 29° WSW 23:19:38 24° SW
Cosmos 1758 3.2 23:14:07 10° N 23:18:04 79° W 23:18:04 79° W
Cosmos 389 Rocket 2.9 23:15:39 10° N 23:18:31 58° N 23:18:31 58° N
Spot 4 3.8 23:21:37 61° SSW 23:22:21 75° WSW 23:27:12 10° NNW
USA 267 3.6 23:16:42 10° ENE 23:22:48 41° SE 23:22:58 41° SE
Lacrosse 5 2.0 23:25:30 55° ESE 23:25:30 55° ESE 23:30:01 10° NE
SL-16 R/B 2.2 23:22:35 10° NNW 23:28:16 72° ENE 23:29:33 53° SE
ISS -0.8 23:28:07 10° NW 23:30:21 17° N 23:32:35 10° NE
Cosmos 1934 Rocket 4.0 23:23:59 10° N 23:30:21 72° E 23:32:02 50° SSE
NOSS 3-1 (C) 4.0 23:23:43 10° NW 23:31:20 83° NE 23:34:52 39° SE
SeaSat 1 3.8 23:30:49 25° E 23:32:28 31° NE 23:36:47 10° N
CZ-2C R/B 3.9 23:33:01 36° ESE 23:34:22 42° ENE 23:39:42 10° N
DELTA 2 DEB (DPAF) 4.3 23:34:36 60° WSW 23:34:52 62° WSW 23:39:20 10° NNW
ATLAS CENTAUR R/B 1.7 23:35:35 10° NNW 23:38:30 53° NNW 23:38:30 53° NNW
CZ-4C R/B 4.2 23:45:30 39° WNW 23:45:30 39° WNW 23:48:20 10° NNW
Cosmos 1758 Rocket 4.0 23:47:43 52° W 23:47:59 53° W 23:52:15 10° N
Cosmos 2251 Rocket 3.5 23:47:56 62° SSW 23:48:52 85° WNW 23:54:17 10° NNE
Cosmos 1733 3.7 23:45:30 10° NNW 23:48:41 56° NW 23:48:41 56° NW
H-2A R/B 4.0 23:48:48 20° WSW 23:49:30 21° W 23:52:55 10° NW
Cosmos 1842 Rocket 4.4 23:47:54 10° N 23:52:04 41° ENE 23:52:04 41° ENE
Cosmos 972 4.4 23:48:35 10° NNW 23:53:59 71° ENE 23:54:28 65° ESE
